Petersburg, WV

5:33 AM EST on December 10, 2019 (GMT -0500)
Petersburg

Weather History for KW99 - September, 2019

Change the Weather History Date:

Wednesday, September 4, 2019

  Actual Average (KEKN) Record (KEKN)
Temperature  
Mean Temperature 72 °F -  
Max Temperature 88 °F 76 °F 91 °F (1953)
Min Temperature 57 °F 54 °F 36 °F (1997)
Cooling Degree Days 8    
Growing Degree Days 22 (Base 50)    
Moisture  
Dew Point 64 °F    
Average Humidity 78    
Maximum Humidity 100    
Minimum Humidity 44    
Precipitation  
Precipitation 0.00 in - - ()
Sea Level Pressure  
Sea Level Pressure 29.99 in    
Wind  
Wind Speed 3 mph (West)    
Max Wind Speed 17 mph    
Max Gust Speed 22 mph    
Visibility 9 miles    
Events      
Averages and records for this station are not official NWS values.
T = Trace of Precipitation, MM = Missing Value Source: NWS Daily Summary

Daily Weather History Graph

Daily Weather History Graph

Search for Another Location

Airport or City:

Astronomy

Sep. 04, 2019 Rise Set
Actual Time 6:47 AM EDT 7:42 PM EDT
Civil Twilight 6:20 AM EDT 8:09 PM EDT
Nautical Twilight 5:48 AM EDT 8:42 PM EDT
Astronomical Twilight 5:14 AM EDT 9:15 PM EDT
Moon 12:44 PM EDT (9/4) 11:19 PM EDT (9/4)
Length of Visible Light 13h 49m
Length of Day
12h 54m
Waxing Crescent, 34% of the Moon is Illuminated
Sep 4
Waxing Crescent
Sep 5
First Quarter
Sep 14
Full
Sep 21
Last Quarter
Sep 28
New

Hourly Weather History & Observations

Time (EDT) Temp. Heat Index Dew Point Humidity Pressure Visibility Wind Dir Wind Speed Gust Speed Precip Events Conditions
12:15 AM 61.7 °F - 61.5 °F 99% 30.00 in 10.0 mi Calm Calm - N/A   Clear
12:35 AM 62.6 °F - 62.2 °F 99% 30.00 in 7.0 mi Calm Calm - N/A   Clear
12:55 AM 61.9 °F - 61.5 °F 99% 30.00 in 10.0 mi Calm Calm - N/A   Clear
1:15 AM 60.8 °F - 60.1 °F 97% 30.00 in 10.0 mi Calm Calm - N/A   Clear
1:35 AM 60.4 °F - 60.1 °F 99% 30.00 in 10.0 mi WNW 3.5 mph - N/A   Clear
1:55 AM 60.4 °F - 59.9 °F 98% 30.00 in 10.0 mi Calm Calm - N/A   Clear
2:15 AM 61.3 °F - 61.2 °F 99% 30.00 in 7.0 mi Calm Calm - N/A   Clear
2:35 AM 60.3 °F - 60.1 °F 99% 29.99 in 7.0 mi Calm Calm - N/A   Clear
2:55 AM 59.2 °F - 59.0 °F 99% 29.99 in 10.0 mi Calm Calm - N/A   Clear
3:15 AM 60.4 °F - 60.4 °F 100% 30.00 in 5.0 mi Calm Calm - N/A   Clear
3:35 AM 58.6 °F - 58.5 °F 99% 29.99 in 7.0 mi Calm Calm - N/A   Clear
3:55 AM 58.5 °F - 58.3 °F 99% 30.00 in 7.0 mi Calm Calm - N/A   Clear
4:15 AM 58.3 °F - 58.3 °F 100% 30.00 in 7.0 mi Calm Calm - N/A   Clear
4:35 AM 58.1 °F - 58.1 °F 100% 30.00 in 7.0 mi Calm Calm - N/A   Clear
4:55 AM 58.6 °F - 58.6 °F 100% 30.01 in 7.0 mi Calm Calm - N/A   Clear
5:15 AM 59.2 °F - 59.0 °F 99% 30.00 in 7.0 mi Calm Calm - N/A   Clear
5:35 AM 58.6 °F - 58.5 °F 99% 30.00 in 5.0 mi Calm Calm - N/A   Clear
5:55 AM 58.1 °F - 58.1 °F 100% 30.00 in 7.0 mi WNW 4.6 mph - N/A   Clear
6:15 AM 57.4 °F - 57.4 °F 100% 30.00 in 7.0 mi Calm Calm - N/A   Clear
6:35 AM 57.7 °F - 57.7 °F 100% 30.01 in 7.0 mi Calm Calm - N/A   Clear
6:55 AM 57.4 °F - 57.2 °F 99% 30.01 in 5.0 mi Calm Calm - N/A   Clear
7:15 AM 57.4 °F - 57.4 °F 100% 30.01 in 7.0 mi Calm Calm - N/A   Clear
7:30 AM 59.0 °F - 59.0 °F 100% 30.01 in 7.0 mi Calm Calm - N/A   Clear
7:55 AM 61.5 °F - 61.2 °F 99% 30.01 in 7.0 mi Calm Calm - N/A   Clear
8:15 AM 62.6 °F - 61.7 °F 97% 30.01 in 10.0 mi Calm Calm - N/A   Clear
8:35 AM 64.9 °F - 63.1 °F 94% 30.01 in 10.0 mi Calm Calm - N/A   Clear
8:55 AM 68.0 °F - 64.6 °F 89% 30.00 in 10.0 mi Calm Calm - N/A   Clear
9:15 AM 72.5 °F - 65.7 °F 79% 30.00 in 10.0 mi Calm Calm - N/A   Clear
9:35 AM 75.6 °F - 67.6 °F 76% 29.99 in 10.0 mi Calm Calm - N/A   Clear
9:55 AM 80.4 °F 82.4 °F 66.0 °F 61% 29.99 in 10.0 mi South 8.1 mph - N/A   Scattered Clouds
10:15 AM 82.0 °F 84.3 °F 66.4 °F 59% 29.99 in 10.0 mi SSW 5.8 mph - N/A   Scattered Clouds
10:35 AM 82.4 °F 84.6 °F 66.2 °F 58% 29.99 in 10.0 mi SSW 5.8 mph - N/A   Scattered Clouds
10:55 AM 82.4 °F 84.8 °F 66.7 °F 59% 30.00 in 10.0 mi WSW 9.2 mph 16.1 mph N/A   Scattered Clouds
11:15 AM 84.0 °F 86.8 °F 67.5 °F 57% 29.99 in 10.0 mi WSW 9.2 mph - N/A   Scattered Clouds
11:35 AM 84.6 °F 87.9 °F 68.5 °F 58% 29.99 in 10.0 mi WSW 10.4 mph - N/A   Clear
11:55 AM 84.6 °F 87.9 °F 68.5 °F 58% 29.99 in 10.0 mi West 12.7 mph 21.9 mph N/A   Clear
12:15 PM 85.5 °F 88.8 °F 68.2 °F 56% 29.98 in 10.0 mi West 15.0 mph - N/A   Clear
12:35 PM 86.5 °F 90.7 °F 69.1 °F 56% 29.98 in 10.0 mi WNW 11.5 mph - N/A   Clear
12:55 PM 87.1 °F 90.9 °F 68.4 °F 54% 29.97 in 10.0 mi West 15.0 mph 21.9 mph N/A   Clear
1:15 PM 86.9 °F 90.3 °F 68.0 °F 53% 29.97 in 10.0 mi West 6.9 mph 18.4 mph N/A   Clear
1:35 PM 88.0 °F 91.4 °F 67.8 °F 51% 29.97 in 10.0 mi West 12.7 mph 19.6 mph N/A   Clear
1:55 PM 87.8 °F 90.4 °F 66.6 °F 49% 29.96 in 10.0 mi West 13.8 mph 21.9 mph N/A   Clear
2:15 PM 88.3 °F 91.6 °F 67.5 °F 50% 29.96 in 10.0 mi West 6.9 mph - N/A   Clear
2:35 PM 88.3 °F 91.2 °F 66.7 °F 49% 29.96 in 10.0 mi WNW 11.5 mph 20.7 mph N/A   Clear
2:55 PM 88.7 °F 91.1 °F 66.2 °F 47% 29.96 in 7.0 mi WNW 9.2 mph 19.6 mph N/A   Scattered Clouds
3:15 PM 88.0 °F 90.3 °F 65.8 °F 48% 29.95 in 10.0 mi West 13.8 mph 20.7 mph N/A   Clear
3:35 PM 88.9 °F 91.4 °F 66.6 °F 47% 29.95 in 10.0 mi West 15.0 mph - N/A   Clear
3:55 PM 88.5 °F 90.5 °F 65.1 °F 46% 29.95 in 10.0 mi West 17.3 mph 20.7 mph N/A   Clear
4:15 PM 88.7 °F 90.8 °F 65.3 °F 46% 29.95 in 10.0 mi West 16.1 mph - N/A   Clear
4:35 PM 88.3 °F 90.2 °F 64.9 °F 46% 29.94 in 10.0 mi West 11.5 mph 19.6 mph N/A   Clear
4:55 PM 88.0 °F 89.0 °F 63.9 °F 44% 29.94 in 10.0 mi West 12.7 mph 18.4 mph N/A   Clear
5:15 PM 87.8 °F 89.4 °F 64.9 °F 46% 29.95 in 10.0 mi West 13.8 mph - N/A   Clear
5:35 PM 87.1 °F 88.9 °F 65.3 °F 48% 29.95 in 10.0 mi West 10.4 mph - N/A   Clear
5:55 PM 84.6 °F 86.8 °F 66.4 °F 54% 29.96 in 10.0 mi West 8.1 mph - N/A   Clear
6:15 PM 85.3 °F 88.5 °F 67.8 °F 56% 29.97 in 10.0 mi West 4.6 mph - N/A   Clear
6:35 PM 84.6 °F 87.1 °F 66.9 °F 55% 29.97 in 10.0 mi West 4.6 mph - N/A   Clear
6:55 PM 82.4 °F 86.1 °F 69.6 °F 65% 29.97 in 10.0 mi Calm Calm - N/A   Clear
7:15 PM 77.7 °F - 69.8 °F 76% 29.97 in 10.0 mi NW 3.5 mph - N/A   Clear
7:30 PM 76.6 °F - 69.4 °F 78% 29.98 in 10.0 mi WNW 4.6 mph - N/A   Clear
7:55 PM 75.0 °F - 68.9 °F 81% 29.99 in 10.0 mi WNW 4.6 mph - N/A   Scattered Clouds
8:15 PM 72.9 °F - 68.5 °F 86% 30.00 in 10.0 mi West 3.5 mph - N/A   Scattered Clouds
8:35 PM 73.9 °F - 68.4 °F 83% 30.00 in 10.0 mi NW 3.5 mph - N/A   Clear
8:55 PM 71.1 °F - 67.8 °F 89% 30.00 in 10.0 mi Calm Calm - N/A   Clear
9:15 PM 71.8 °F - 67.3 °F 86% 30.01 in 10.0 mi Calm Calm - N/A   Clear
9:35 PM 70.5 °F - 66.9 °F 88% 30.02 in 10.0 mi Calm Calm - N/A   Clear
9:55 PM 69.6 °F - 67.3 °F 92% 30.02 in 10.0 mi Calm Calm - N/A   Clear
10:15 PM 70.0 °F - 66.7 °F 89% 30.02 in 10.0 mi WNW 3.5 mph - N/A   Clear
10:35 PM 69.8 °F - 66.4 °F 89% 30.02 in 10.0 mi Calm Calm - N/A   Scattered Clouds
10:55 PM 68.5 °F - 66.6 °F 93% 30.03 in 10.0 mi Calm Calm - N/A   Clear
11:15 PM 66.6 °F - 64.9 °F 95% 30.03 in 10.0 mi WNW 6.9 mph - N/A   Clear
11:35 PM 66.6 °F - 64.8 °F 94% 30.04 in 10.0 mi WNW 3.5 mph - N/A   Clear
11:55 PM 67.3 °F - 64.6 °F 91% 30.04 in 10.0 mi WNW 4.6 mph - N/A   Clear